Hourly Weather Ludzislawice

Today, 13 June, Sunday

Time Temperature Precipitation Wind Pressure Humidity
00:00 +10°C° 0 mm 5 mps 760 mmHg 90%
01:00 +9°C° 0 mm 6 mps 760 mmHg 90%
02:00 +9°C° 0 mm 6 mps 761 mmHg 90%
03:00 +9°C° 0 mm 5 mps 761 mmHg 91%
04:00 +8°C° 0 mm 5 mps 761 mmHg 91%
05:00 +9°C° 0 mm 6 mps 762 mmHg 86%
06:00 +10°C° 0 mm 6 mps 762 mmHg 82%
07:00 +11°C° 0 mm 6 mps 762 mmHg 77%
08:00 +13°C° 0.1 mm 6 mps 763 mmHg 74%
09:00 +13°C° 0.1 mm 6 mps 763 mmHg 70%
10:00 +14°C° 0.1 mm 6 mps 764 mmHg 66%
11:00 +15°C° 0 mm 6 mps 764 mmHg 64%
12:00 +15°C° 0 mm 6 mps 764 mmHg 62%
13:00 +16°C° 0 mm 6 mps 764 mmHg 59%
14:00 +16°C° 0 mm 5 mps 764 mmHg 59%
15:00 +16°C° 0 mm 5 mps 765 mmHg 60%
16:00 +16°C° 0 mm 5 mps 765 mmHg 60%
17:00 +17°C° 0 mm 4 mps 765 mmHg 61%
18:00 +16°C° 0 mm 3 mps 765 mmHg 63%
19:00 +16°C° 0 mm 3 mps 765 mmHg 64%
20:00 +15°C° 0 mm 2 mps 765 mmHg 70%
21:00 +13°C° 0 mm 2 mps 765 mmHg 77%
22:00 +12°C° 0 mm 2 mps 765 mmHg 83%
23:00 +10°C° 0 mm 2 mps 765 mmHg 86%

Tomorrow, 14 June, Monday

Time Temperature Precipitation Wind Pressure Humidity
00:00 +10°C° 0 mm 2 mps 765 mmHg 89%
01:00 +10°C° 0 mm 2 mps 765 mmHg 93%
02:00 +9°C° 0 mm 2 mps 765 mmHg 93%
03:00 +9°C° 0 mm 2 mps 765 mmHg 94%
04:00 +9°C° 0 mm 2 mps 765 mmHg 95%
05:00 +12°C° 0 mm 2 mps 765 mmHg 87%
06:00 +14°C° 0 mm 2 mps 765 mmHg 80%
07:00 +16°C° 0 mm 2 mps 765 mmHg 73%
08:00 +17°C° 0 mm 2 mps 765 mmHg 67%
09:00 +19°C° 0 mm 2 mps 765 mmHg 61%
10:00 +21°C° 0 mm 2 mps 765 mmHg 55%
11:00 +23°C° 0 mm 2 mps 764 mmHg 52%
12:00 +24°C° 0 mm 2 mps 764 mmHg 49%
13:00 +25°C° 0 mm 2 mps 764 mmHg 46%
14:00 +25°C° 0 mm 2 mps 763 mmHg 46%
15:00 +26°C° 0 mm 2 mps 763 mmHg 46%
16:00 +26°C° 0 mm 2 mps 763 mmHg 47%
17:00 +25°C° 0 mm 1 mps 762 mmHg 52%
18:00 +24°C° 0 mm 1 mps 762 mmHg 58%
19:00 +23°C° 0 mm 1 mps 762 mmHg 64%
20:00 +22°C° 0 mm 1 mps 762 mmHg 66%
21:00 +20°C° 0 mm 1 mps 762 mmHg 69%
22:00 +18°C° 0 mm 2 mps 762 mmHg 72%
23:00 +18°C° 0 mm 2 mps 762 mmHg 74%

Day after tomorrow, 15 June, Tuesday

Time Temperature Precipitation Wind Pressure Humidity
00:00 +17°C° 0 mm 2 mps 762 mmHg 76%
01:00 +16°C° 0 mm 2 mps 762 mmHg 78%
02:00 +16°C° 0 mm 2 mps 762 mmHg 80%
03:00 +16°C° 0 mm 2 mps 762 mmHg 81%
04:00 +16°C° 0 mm 2 mps 762 mmHg 83%
05:00 +17°C° 0 mm 2 mps 762 mmHg 80%
06:00 +18°C° 0 mm 2 mps 762 mmHg 77%
07:00 +20°C° 0 mm 2 mps 762 mmHg 74%
08:00 +20°C° 0 mm 3 mps 762 mmHg 73%
09:00 +21°C° 0 mm 3 mps 762 mmHg 72%
10:00 +22°C° 0 mm 3 mps 762 mmHg 71%
11:00 +21°C° 0.1 mm 3 mps 762 mmHg 73%
12:00 +21°C° 0.1 mm 3 mps 762 mmHg 76%
13:00 +20°C° 0.1 mm 3 mps 762 mmHg 78%
14:00 +21°C° 0 mm 3 mps 762 mmHg 74%
15:00 +21°C° 0 mm 3 mps 762 mmHg 69%
16:00 +23°C° 0 mm 2 mps 762 mmHg 65%
17:00 +21°C° 0 mm 3 mps 762 mmHg 66%
18:00 +20°C° 0 mm 3 mps 762 mmHg 66%
19:00 +20°C° 0 mm 3 mps 762 mmHg 66%
20:00 +18°C° 0 mm 3 mps 762 mmHg 68%
21:00 +16°C° 0 mm 2 mps 763 mmHg 70%
22:00 +14°C° 0 mm 2 mps 763 mmHg 72%
23:00 +13°C° 0 mm 2 mps 763 mmHg 72%

16 June, Wednesday

Time Temperature Precipitation Wind Pressure Humidity
00:00 +12°C° 0 mm 2 mps 763 mmHg 73%
01:00 +12°C° 0 mm 2 mps 764 mmHg 73%
02:00 +10°C° 0 mm 2 mps 764 mmHg 74%
03:00 +10°C° 0 mm 2 mps 764 mmHg 75%
04:00 +10°C° 0 mm 2 mps 764 mmHg 76%
05:00 +12°C° 0 mm 2 mps 764 mmHg 70%
06:00 +14°C° 0 mm 2 mps 764 mmHg 64%
07:00 +16°C° 0 mm 2 mps 764 mmHg 57%
08:00 +18°C° 0 mm 2 mps 764 mmHg 53%
09:00 +20°C° 0 mm 2 mps 764 mmHg 49%
10:00 +21°C° 0 mm 2 mps 764 mmHg 44%
11:00 +24°C° 0 mm 1 mps 763 mmHg 41%
12:00 +25°C° 0 mm 1 mps 763 mmHg 38%
13:00 +26°C° 0 mm 1 mps 763 mmHg 35%
14:00 +26°C° 0 mm 2 mps 763 mmHg 35%
15:00 +26°C° 0 mm 2 mps 762 mmHg 34%
16:00 +27°C° 0 mm 2 mps 762 mmHg 34%
17:00 +25°C° 0 mm 2 mps 762 mmHg 41%
18:00 +24°C° 0 mm 3 mps 762 mmHg 48%
19:00 +22°C° 0 mm 3 mps 762 mmHg 55%
20:00 +20°C° 0 mm 3 mps 762 mmHg 61%
21:00 +18°C° 0 mm 3 mps 763 mmHg 68%
22:00 +17°C° 0 mm 3 mps 763 mmHg 74%
23:00 +16°C° 0 mm 3 mps 763 mmHg 77%

17 June, Thursday

Time Temperature Precipitation Wind Pressure Humidity
00:00 +16°C° 0 mm 3 mps 763 mmHg 79%
01:00 +14°C° 0 mm 3 mps 763 mmHg 82%
02:00 +14°C° 0 mm 3 mps 763 mmHg 83%
03:00 +13°C° 0 mm 3 mps 763 mmHg 83%
04:00 +13°C° 0 mm 3 mps 763 mmHg 84%
05:00 +16°C° 0 mm 3 mps 763 mmHg 77%
06:00 +18°C° 0 mm 3 mps 763 mmHg 70%
07:00 +20°C° 0 mm 4 mps 763 mmHg 63%
08:00 +22°C° 0 mm 4 mps 763 mmHg 59%
09:00 +25°C° 0 mm 4 mps 763 mmHg 55%
10:00 +27°C° 0 mm 5 mps 762 mmHg 51%
11:00 +28°C° 0 mm 5 mps 762 mmHg 49%
12:00 +29°C° 0 mm 5 mps 762 mmHg 46%
13:00 +30°C° 0 mm 5 mps 762 mmHg 44%
14:00 +30°C° 0 mm 5 mps 762 mmHg 43%
15:00 +30°C° 0 mm 5 mps 762 mmHg 43%
16:00 +30°C° 0 mm 4 mps 761 mmHg 43%
17:00 +29°C° 0 mm 4 mps 761 mmHg 48%
18:00 +28°C° 0 mm 4 mps 761 mmHg 53%
19:00 +26°C° 0 mm 4 mps 761 mmHg 58%
20:00 +25°C° 0 mm 4 mps 762 mmHg 63%
21:00 +22°C° 0 mm 4 mps 762 mmHg 69%
22:00 +21°C° 0 mm 4 mps 762 mmHg 74%
23:00 +20°C° 0 mm 4 mps 762 mmHg 76%

18 June, Friday

Time Temperature Precipitation Wind Pressure Humidity
00:00 +20°C° 0 mm 4 mps 761 mmHg 79%
01:00 +19°C° 0 mm 4 mps 761 mmHg 81%
02:00 +19°C° 0 mm 3 mps 761 mmHg 84%
03:00 +18°C° 0 mm 3 mps 761 mmHg 86%
04:00 +18°C° 0 mm 2 mps 761 mmHg 89%
05:00 +19°C° 0 mm 3 mps 761 mmHg 82%
06:00 +21°C° 0 mm 4 mps 761 mmHg 75%
07:00 +23°C° 0 mm 4 mps 761 mmHg 68%
08:00 +26°C° 0 mm 5 mps 761 mmHg 62%
09:00 +28°C° 0 mm 5 mps 761 mmHg 56%
10:00 +30°C° 0 mm 5 mps 761 mmHg 49%
11:00 +30°C° 0 mm 5 mps 761 mmHg 46%
12:00 +32°C° 0 mm 5 mps 761 mmHg 43%
13:00 +33°C° 0 mm 5 mps 761 mmHg 40%
14:00 +33°C° 0 mm 5 mps 760 mmHg 40%
15:00 +33°C° 0 mm 5 mps 760 mmHg 41%
16:00 +33°C° 0 mm 5 mps 760 mmHg 41%
17:00 +32°C° 0 mm 5 mps 760 mmHg 47%
18:00 +29°C° 0 mm 4 mps 760 mmHg 52%
19:00 +28°C° 0 mm 4 mps 760 mmHg 57%
20:00 +27°C° 0 mm 4 mps 760 mmHg 61%
21:00 +25°C° 0 mm 4 mps 760 mmHg 65%
22:00 +22°C° 0 mm 3 mps 761 mmHg 68%
23:00 +22°C° 0 mm 3 mps 761 mmHg 70%
Show more

We Need Your Consent

Meteoprog and our Service Providers may store and access personal data such as cookies, device identifiers or other similar technologies on your device and process such data to personalise content and ads, as well as provide social media features and to analyse the traffic.

  • Store and/or access information on your device

    Cookies, device identifiers or other information can be stored or accessed on your device for the purposes indicated above.

  • Personalised ads and content, ad and content measurement, audience insights, and products development

    Ads and content can be personalised based on a profile. More data can be added to better personalise ads and content. Ad and content performance can be measured. Insights about the audience who saw the ads and content can be derived. Such data can be used to develop or improve user’s experience, systems and software.

By clicking ‘I Agree’ you will allow the use of indicated cookies, device identifiers, web beacons or other similar technologies. Your settings can be changed in the browser on your device.

For certain purposes, legitimate interests may be relied on, rather than consent. You can read more about this in our Privacy and Cookie Policy.